This is the latest recevied weather packets stored in our database for station/object 2E0RGX-13. If no packets are shown the sender has not sent any weather packets the latest 10 day(s).
| Time | Temp. | Humidity | Pressure | Rain* | Wind** | Luminosity | Snow |
|---|---|---|---|---|---|---|---|
| 1777630910 | 20.56° C | 38% | 1017 hPa | 0 mm | - | 4 W/m² | - |
| 1777630605 | 20° C | 38% | 1017.4 hPa | 0 mm | - | 4 W/m² | - |
| 1777630301 | 20.56° C | 38% | 1017.3 hPa | 0 mm | - | 4 W/m² | - |
| 1777629997 | 20° C | 38% | 1017.2 hPa | 0 mm | - | 4 W/m² | - |
| 1777629693 | 20° C | 38% | 1017.6 hPa | 0 mm | - | 4 W/m² | - |
| 1777629389 | 20° C | 39% | 1017.2 hPa | 0 mm | - | 4 W/m² | - |
| 1777629086 | 19.44° C | 38% | 1017.4 hPa | 0 mm | - | 4 W/m² | - |
| 1777628782 | 19.44° C | 39% | 1017.5 hPa | 0 mm | - | 4 W/m² | - |
| 1777628478 | 19.44° C | 39% | 1017.6 hPa | 0 mm | - | 4 W/m² | - |
| 1777628174 | 19.44° C | 39% | 1017.5 hPa | 0 mm | - | 4 W/m² | - |
| 1777627870 | 18.33° C | 41% | 1017.6 hPa | 0 mm | - | 4 W/m² | - |
| 1777627566 | 18.89° C | 40% | 1017.7 hPa | 0 mm | - | 4 W/m² | - |
| 1777627262 | 18.89° C | 40% | 1017.6 hPa | 0 mm | - | 4 W/m² | - |
| 1777626958 | 18.33° C | 41% | 1017.8 hPa | 0 mm | - | 3 W/m² | - |
| 1777626654 | 18.33° C | 41% | 1017.8 hPa | 0 mm | - | 3 W/m² | - |
| 1777626349 | 17.78° C | 41% | 1017.8 hPa | 0 mm | - | 3 W/m² | - |
| 1777626045 | 17.78° C | 41% | 1017.5 hPa | 0 mm | - | 3 W/m² | - |
| 1777625741 | 17.22° C | 41% | 1017.7 hPa | 0 mm | - | 3 W/m² | - |
| 1777625438 | 17.22° C | 42% | 1017.7 hPa | 0 mm | - | 3 W/m² | - |
| 1777625134 | 16.67° C | 43% | 1017.6 hPa | 0 mm | - | 3 W/m² | - |
| 1777624830 | 17.22° C | 42% | 1017.6 hPa | 0 mm | - | 3 W/m² | - |
| 1777624526 | 16.67° C | 43% | 1017.6 hPa | 0 mm | - | 3 W/m² | - |
| 1777624222 | 17.22° C | 42% | 1017.7 hPa | 0 mm | - | 3 W/m² | - |
| 1777623918 | 16.67° C | 43% | 1018 hPa | 0 mm | - | 3 W/m² | - |
| 1777623613 | 16.67° C | 43% | 1017.9 hPa | 0 mm | - | 3 W/m² | - |
* Rain latest hour (hover to see other rain measurements)
** Current wind speed in m/s (hover to see current wind gust speed)